[[{"header":{"parameterUnit":"m.s-1","parameterCategory":1,"la1":30.2991,"la2":30.254,"lo1":-89.0895,"lo2":-89.0444,"dy":0.0017,"dx":0.0017,"nx":28,"ny":28,"refTime":"2023-08-24T21:00:00:Z","depth":0,"parameterNumber":2,"parameterNumberName":"U-component_of_WINDS"},"data":[0,0,0,0,0,0,0,0,0,0,0,0,0,0,0,0,0,0,0,0,0,0,0,0,0,0,0,0,0,0,0,0,0,0,0,0,0,0,0,0,0,0,0,0,0,0,0,0,0,0,0,0,0,0,0,0,0,0,-0.5088,-0.5088,0,-0.5087,-0.5087,-0.5087,-0.5061,-0.506,-0.5059,-0.5059,-0.506,-0.5061,-0.5061,0,0,0,0,0,0,0,0,0,0,0,0,0,-0.5068,-0.5068,-0.5088,-0.5088,-0.5088,-0.5087,-0.5087,-0.5087,-0.5061,-0.506,-0.5059,-0.5058,-0.506,-0.5061,-0.5061,0,0,0,0,0,0,0,0,0,0,0,0,0,-0.5073,-0.5068,-0.5088,-0.5075,-0.5073,-0.5087,-0.5087,-0.5087,-0.5061,-0.506,-0.5059,-0.5058,-0.5059,-0.506,-0.5061,-0.5089,0,0,-0.5065,-0.5065,0,0,0,0,0,0,0,0,-0.5073,-0.5074,-0.5077,-0.5076,-0.5074,-0.5073,-0.5081,-0.5088,-0.5061,-0.5066,-0.5059,-0.5057,-0.5065,-0.5066,-0.5068,-0.5089,-0.5089,-0.5065,-0.5065,-0.5066,-0.5066,0,0,0,0,0,0,0,-0.5072,-0.5073,-0.5088,-0.5077,-0.5075,-0.5069,-0.5069,-0.5082,-0.5072,-0.5065,-0.5063,-0.5064,-0.5064,-0.5067,-0.5068,-0.5089,-0.5065,-0.5066,-0.5066,-0.5067,-0.5133,-0.5134,0,0,0,0,0,0,-0.5073,-0.5073,-0.5088,-0.5088,-0.5071,-0.507,-0.507,-0.5075,-0.5071,-0.507,-0.5064,-0.5062,-0.5066,-0.5067,-0.5068,-0.51,-0.5066,-0.5067,-0.5067,-0.5132,-0.5133,-0.5134,0,0,0,0,0,0,-0.5073,-0.5075,-0.5088,-0.508,-0.5081,-0.5072,-0.5077,-0.5075,-0.5078,-0.5071,-0.5069,-0.5069,-0.5065,-0.5066,-0.5084,-0.51,-0.5067,-0.5068,-0.513,-0.5132,-0.5134,-0.5165,0,0,0,0,0,0,-0.5073,-0.5075,-0.5085,-0.508,-0.5082,-0.5104,-0.5078,-0.5076,-0.5079,-0.5076,-0.5074,-0.5073,-0.5064,-0.5082,-0.5085,-0.5101,-0.5069,-0.5129,-0.5131,-0.5133,-0.5163,-0.5168,-0.5172,0,0,0,0,0,-0.5072,-0.5094,-0.5086,-0.5088,-0.5094,-0.5105,-0.5105,-0.5094,-0.5081,-0.5091,-0.5086,-0.5073,-0.5097,-0.5084,-0.5087,-0.5103,-0.5128,-0.513,-0.5133,-0.5161,-0.5167,-0.5172,0,0,0,0,0,0,-0.5102,-0.5094,-0.5084,-0.5105,-0.5106,-0.51,-0.5113,-0.5101,-0.5106,-0.5103,-0.509,-0.509,-0.5109,-0.5108,-0.5094,-0.513,-0.511,-0.5113,-0.513,-0.5136,-0.5141,-0.5141,-0.507,0,0,0,0,0,-0.5111,-0.512,-0.5112,-0.5131,-0.5132,-0.5122,-0.5127,-0.5118,-0.5118,-0.5118,-0.5115,-0.5116,-0.5124,-0.513,-0.5137,-0.5162,-0.5161,-0.5174,-0.5179,-0.5183,-0.5186,-0.52,-0.5206,-0.5143,-0.5143,-0.5143,0,0,-0.513,-0.5126,-0.5133,-0.5137,-0.5137,-0.5147,-0.5123,-0.5134,-0.5142,-0.512,-0.5137,-0.5134,-0.5135,-0.5156,-0.5166,-0.5156,-0.5203,-0.5186,-0.5189,-0.5191,-0.5203,-0.5209,-0.5215,-0.5144,-0.5144,-0.5144,0,0,-0.517,-0.5167,-0.5184,-0.5183,-0.5182,-0.5175,-0.5179,-0.5175,-0.5173,-0.5188,-0.5173,-0.5181,-0.5195,-0.5196,-0.5199,-0.5238,-0.5227,-0.5241,-0.5266,-0.528,-0.5285,-0.5289,-0.5304,-0.531,-0.5244,-0.5244,-0.5244,0,-0.5194,-0.5207,-0.5194,-0.5206,-0.5209,-0.5189,-0.5206,-0.5206,-0.5208,-0.5211,-0.5199,-0.5216,-0.5215,-0.5237,-0.5246,-0.5248,-0.5253,-0.5242,-0.5285,-0.5289,-0.5293,-0.5307,-0.5313,-0.5246,-0.5246,-0.5245,-0.5245,0,-0.5237,-0.5247,-0.526,-0.5262,-0.5266,-0.5281,-0.527,-0.5276,-0.5266,-0.5261,-0.5278,-0.5275,-0.5282,-0.5286,-0.5277,-0.5306,-0.53,-0.5287,-0.5267,-0.5301,-0.5314,-0.532,-0.5248,-0.5248,-0.5247,-0.5247,0,0,-0.5297,-0.529,-0.5296,-0.5296,-0.5293,-0.5301,-0.5314,-0.532,-0.5326,-0.5327,-0.5339,-0.5351,-0.5338,-0.5341,-0.5332,-0.5344,-0.5376,-0.5329,-0.5329,-0.5339,-0.541,-0.5421,-0.5427,-0.5368,-0.5369,-0.5369,-0.541,0,-0.5337,-0.536,-0.5347,-0.5372,-0.5381,-0.5362,-0.5374,-0.5374,-0.5369,-0.5377,-0.5371,-0.538,-0.5362,-0.5364,-0.5375,-0.537,-0.5391,-0.5367,-0.538,-0.538,-0.5382,-0.5434,-0.5446,-0.5484,-0.5415,-0.5416,-0.5416,0,-0.5386,-0.5389,-0.5415,-0.541,-0.5414,-0.5425,-0.5429,-0.5436,-0.5435,-0.5431,-0.5434,-0.5422,-0.5435,-0.5415,-0.5434,-0.5418,-0.5422,-0.5421,-0.5422,-0.5424,-0.5402,-0.5439,-0.5496,-0.5503,-0.5424,-0.5424,-0.5423,0,-0.5429,-0.5439,-0.5456,-0.5457,-0.5452,-0.546,-0.5458,-0.5456,-0.546,-0.5464,-0.5467,-0.5472,-0.5475,-0.548,-0.547,-0.5455,-0.5491,-0.5469,-0.5488,-0.5489,-0.5498,-0.5498,-0.5559,-0.5499,-0.5498,-0.5498,-0.5498,0,-0.5475,-0.5492,-0.5475,-0.5486,-0.5504,-0.549,-0.5508,-0.5504,-0.5503,-0.5513,-0.5496,-0.5506,-0.5491,-0.55,-0.5492,-0.551,-0.5511,-0.5509,-0.5507,-0.5511,-0.5512,-0.5515,-0.5513,-0.55,-0.55,-0.5499,-0.5499,0,-0.5527,-0.5516,-0.5533,-0.5526,-0.5525,-0.5539,-0.5533,-0.5543,-0.5536,-0.5549,-0.5551,-0.5541,-0.555,-0.554,-0.5549,-0.5544,-0.5568,-0.5561,-0.5568,-0.5567,-0.5587,-0.5586,-0.5654,-0.5662,-0.5595,-0.5596,-0.5596,0,-0.5558,-0.557,-0.5565,-0.557,-0.5569,-0.5577,-0.5581,-0.5567,-0.5572,-0.5571,-0.5582,-0.5589,-0.5594,-0.561,-0.5604,-0.561,-0.5604,-0.5627,-0.5605,-0.561,-0.5606,-0.5606,-0.5608,-0.5633,-0.5633,-0.5634,-0.5635,0,-0.5615,-0.5609,-0.5614,-0.5618,-0.5623,-0.5626,-0.5627,-0.5632,-0.5618,-0.5624,-0.5633,-0.5637,-0.5645,-0.5653,-0.5657,-0.5656,-0.5644,-0.5641,-0.5646,-0.5652,-0.5656,-0.5655,-0.5582,-0.564,-0.564,-0.5639,-0.5639,-0.5639,-0.5658,-0.5668,-0.5666,-0.5673,-0.5672,-0.5674,-0.5683,-0.5677,-0.5683,-0.5689,-0.568,-0.5691,-0.569,-0.5694,-0.5695,-0.5704,-0.5694,-0.5701,-0.5703,-0.5705,-0.5709,-0.5653,-0.5704,-0.5704,-0.5704,-0.5704,-0.5703,0,-0.5715,-0.5712,-0.5719,-0.5721,-0.5726,-0.5712,-0.5713,-0.5719,-0.5729,-0.5728,-0.5734,-0.5744,-0.5751,-0.5745,-0.5752,-0.576,-0.5754,-0.5762,-0.5763,-0.5763,-0.5717,-0.5712,-0.5767,-0.5767,-0.5767,-0.5767,-0.5767,-0.5767,-0.5746,-0.5762,-0.5756,-0.5772,-0.5769,-0.578,-0.5781,-0.5783,-0.5782,-0.5794,-0.58,-0.5796,-0.5793,-0.5799,-0.5806,-0.5804,-0.5808,-0.5818,-0.5814,-0.5772,-0.5766,-0.576,-0.5756,-0.5818,-0.5819,-0.5859,-0.586,-0.586]},{"header":{"parameterUnit":"m.s-1","parameterCategory":1,"la1":30.2991,"la2":30.254,"lo1":-89.0895,"lo2":-89.0444,"dy":0.0017,"dx":0.0017,"nx":28,"ny":28,"refTime":"2023-08-24T21:00:00:Z","depth":0,"parameterNumber":3,"parameterNumberName":"V-component_of_WINDS"},"data":[0,0,0,0,0,0,0,0,0,0,0,0,0,0,0,0,0,0,0,0,0,0,0,0,0,0,0,0,0,0,0,0,0,0,0,0,0,0,0,0,0,0,0,0,0,0,0,0,0,0,0,0,0,0,0,0,0,0,-0.9261,-0.9261,0,-0.9265,-0.9265,-0.9265,-0.927,-0.927,-0.927,-0.927,-0.9275,-0.9275,-0.9275,0,0,0,0,0,0,0,0,0,0,0,0,0,-0.9257,-0.9257,-0.9261,-0.9261,-0.9261,-0.9265,-0.9265,-0.9265,-0.927,-0.927,-0.927,-0.927,-0.9275,-0.9275,-0.9275,0,0,0,0,0,0,0,0,0,0,0,0,0,-0.926,-0.9257,-0.9261,-0.9264,-0.9264,-0.9265,-0.9265,-0.9265,-0.927,-0.927,-0.927,-0.927,-0.9275,-0.9275,-0.9275,-0.9273,0,0,-0.9275,-0.9275,0,0,0,0,0,0,0,0,-0.9259,-0.926,-0.9263,-0.9264,-0.9264,-0.9267,-0.9265,-0.9268,-0.927,-0.9268,-0.927,-0.927,-0.9272,-0.9272,-0.9273,-0.9273,-0.9273,-0.9275,-0.9275,-0.9275,-0.9275,0,0,0,0,0,0,0,-0.9259,-0.926,-0.9262,-0.9263,-0.9264,-0.9265,-0.9266,-0.9266,-0.9269,-0.9268,-0.9268,-0.9269,-0.9272,-0.9273,-0.9273,-0.9273,-0.9275,-0.9275,-0.9275,-0.9275,-0.9273,-0.9272,0,0,0,0,0,0,-0.9259,-0.9259,-0.9262,-0.9262,-0.9262,-0.9265,-0.9266,-0.9266,-0.9269,-0.927,-0.9269,-0.9269,-0.9273,-0.9273,-0.9273,-0.9271,-0.9275,-0.9275,-0.9275,-0.9273,-0.9272,-0.9272,0,0,0,0,0,0,-0.9259,-0.9259,-0.9262,-0.9261,-0.9262,-0.9265,-0.9265,-0.9266,-0.9267,-0.927,-0.927,-0.9269,-0.9273,-0.9273,-0.9273,-0.9271,-0.9275,-0.9275,-0.9273,-0.9273,-0.9272,-0.9267,0,0,0,0,0,0,-0.9258,-0.9259,-0.9258,-0.9261,-0.9262,-0.9262,-0.9265,-0.9266,-0.9267,-0.9267,-0.927,-0.927,-0.9273,-0.9273,-0.9273,-0.9272,-0.9275,-0.9273,-0.9273,-0.9272,-0.9268,-0.9267,-0.9266,0,0,0,0,0,-0.9258,-0.9256,-0.9258,-0.9258,-0.9261,-0.9261,-0.9262,-0.9265,-0.9266,-0.9266,-0.9268,-0.927,-0.9272,-0.9273,-0.9273,-0.9272,-0.9273,-0.9273,-0.9272,-0.9268,-0.9267,-0.9266,0,0,0,0,0,0,-0.9253,-0.9257,-0.9259,-0.9258,-0.9259,-0.9262,-0.9261,-0.9264,-0.9265,-0.9265,-0.9269,-0.9269,-0.9269,-0.927,-0.9271,-0.927,-0.9273,-0.9273,-0.9269,-0.9268,-0.9268,-0.9267,-0.9275,0,0,0,0,0,-0.9252,-0.9252,-0.9255,-0.9254,-0.9255,-0.9258,-0.9258,-0.9261,-0.9262,-0.9263,-0.9265,-0.9267,-0.9268,-0.9268,-0.9269,-0.9268,-0.9269,-0.9267,-0.9267,-0.9266,-0.9266,-0.9265,-0.9265,-0.9272,-0.9272,-0.9272,0,0,-0.9249,-0.9251,-0.9251,-0.9253,-0.9255,-0.9255,-0.9259,-0.9259,-0.9259,-0.9263,-0.9263,-0.9265,-0.9267,-0.9266,-0.9266,-0.9267,-0.9264,-0.9266,-0.9265,-0.9265,-0.9265,-0.9264,-0.9264,-0.9271,-0.9271,-0.9271,0,0,-0.9244,-0.9246,-0.9245,-0.9246,-0.9249,-0.9251,-0.9251,-0.9254,-0.9255,-0.9255,-0.9258,-0.9259,-0.926,-0.9262,-0.9263,-0.9259,-0.9261,-0.9259,-0.9256,-0.9255,-0.9255,-0.9254,-0.9253,-0.9252,-0.9259,-0.9259,-0.9259,0,-0.924,-0.9241,-0.9244,-0.9244,-0.9245,-0.9249,-0.9248,-0.925,-0.9252,-0.9253,-0.9254,-0.9256,-0.9258,-0.9258,-0.9257,-0.9257,-0.9257,-0.9258,-0.9255,-0.9254,-0.9254,-0.9252,-0.9252,-0.9258,-0.9258,-0.9259,-0.9259,0,-0.9236,-0.9237,-0.9236,-0.9238,-0.9239,-0.9238,-0.9242,-0.9242,-0.9244,-0.9247,-0.9247,-0.9249,-0.9251,-0.9251,-0.9253,-0.9251,-0.9252,-0.9254,-0.9256,-0.9253,-0.9252,-0.9251,-0.9258,-0.9258,-0.9258,-0.9258,0,0,-0.9228,-0.9232,-0.9232,-0.9233,-0.9236,-0.9236,-0.9236,-0.9238,-0.9238,-0.924,-0.924,-0.9241,-0.9243,-0.9244,-0.9247,-0.9246,-0.9243,-0.9249,-0.9249,-0.9247,-0.9241,-0.9239,-0.9239,-0.9245,-0.9245,-0.9245,-0.9241,0,-0.9223,-0.9223,-0.9226,-0.9225,-0.9226,-0.923,-0.923,-0.9232,-0.9234,-0.9235,-0.9237,-0.9238,-0.9241,-0.9241,-0.9241,-0.9244,-0.9242,-0.9244,-0.9245,-0.9245,-0.9244,-0.9238,-0.9236,-0.9232,-0.9241,-0.924,-0.924,0,-0.9218,-0.9219,-0.9218,-0.9222,-0.9222,-0.9222,-0.9224,-0.9224,-0.9227,-0.9228,-0.923,-0.9233,-0.9233,-0.9236,-0.9236,-0.9237,-0.9238,-0.9239,-0.9239,-0.9239,-0.9242,-0.9238,-0.9231,-0.923,-0.924,-0.924,-0.924,0,-0.9211,-0.9213,-0.9213,-0.9214,-0.9218,-0.9218,-0.9219,-0.9222,-0.9223,-0.9224,-0.9225,-0.9227,-0.9227,-0.9229,-0.9232,-0.9234,-0.9232,-0.9235,-0.9234,-0.9233,-0.9233,-0.9233,-0.9226,-0.9234,-0.9234,-0.9234,-0.9234,0,-0.9206,-0.9205,-0.921,-0.921,-0.9209,-0.9213,-0.9213,-0.9215,-0.9217,-0.9217,-0.9221,-0.9221,-0.9226,-0.9227,-0.9229,-0.9229,-0.923,-0.9231,-0.9232,-0.9231,-0.923,-0.9231,-0.9231,-0.9233,-0.9233,-0.9234,-0.9234,0,-0.9198,-0.9202,-0.9202,-0.9205,-0.9206,-0.9206,-0.9209,-0.9209,-0.9212,-0.9212,-0.9213,-0.9216,-0.9218,-0.9221,-0.9223,-0.9225,-0.9224,-0.9226,-0.9223,-0.9224,-0.9222,-0.9222,-0.9215,-0.9214,-0.9223,-0.9222,-0.9222,0,-0.9194,-0.9194,-0.9198,-0.9198,-0.92,-0.9201,-0.9201,-0.9205,-0.9206,-0.9209,-0.9209,-0.9211,-0.9212,-0.9214,-0.9217,-0.9219,-0.922,-0.9217,-0.922,-0.9219,-0.922,-0.9219,-0.9219,-0.9217,-0.9217,-0.9216,-0.9216,0,-0.9187,-0.9189,-0.919,-0.9192,-0.9193,-0.9194,-0.9196,-0.9196,-0.9201,-0.9202,-0.9203,-0.9204,-0.9206,-0.9208,-0.921,-0.9212,-0.9215,-0.9216,-0.9215,-0.9214,-0.9212,-0.9213,-0.9221,-0.9216,-0.9216,-0.9216,-0.9216,-0.9216,-0.9181,-0.9181,-0.9183,-0.9185,-0.9187,-0.9188,-0.9188,-0.9191,-0.9192,-0.9194,-0.9197,-0.9198,-0.9201,-0.9204,-0.9206,-0.9207,-0.9208,-0.9208,-0.9208,-0.9207,-0.9207,-0.9213,-0.9207,-0.9207,-0.9207,-0.9207,-0.9207,0,-0.9173,-0.9175,-0.9177,-0.9179,-0.918,-0.9183,-0.9185,-0.9186,-0.9187,-0.9189,-0.9191,-0.9192,-0.9194,-0.9197,-0.9199,-0.9199,-0.9201,-0.92,-0.92,-0.92,-0.9205,-0.9205,-0.9199,-0.9199,-0.9199,-0.9199,-0.9199,-0.9199,-0.917,-0.9169,-0.9172,-0.9173,-0.9175,-0.9176,-0.9177,-0.9178,-0.918,-0.9182,-0.9183,-0.9186,-0.9189,-0.9191,-0.9193,-0.9194,-0.9194,-0.9192,-0.9194,-0.9199,-0.92,-0.92,-0.92,-0.9193,-0.9193,-0.9188,-0.9188,-0.9188]}]]